TimeCST,TemperatureF,Dew PointF,Humidity,Sea Level PressureIn,VisibilityMPH,Wind Direction,Wind SpeedMPH,Gust SpeedMPH,PrecipitationIn,Events,Conditions,WindDirDegrees,DateUTC
12:06 AM,12.2,10.4,92,30.40,8.0,Calm,Calm,-,N/A,,Mostly Cloudy,0,2013-01-04 06:06:00
12:31 AM,12.2,8.6,85,30.40,9.0,Calm,Calm,-,N/A,,Mostly Cloudy,0,2013-01-04 06:31:00
12:53 AM,12.0,9.0,88,30.42,9.0,Calm,Calm,-,N/A,,Partly Cloudy,0,2013-01-04 06:53:00
1:53 AM,10.9,9.0,92,30.42,9.0,South,4.6,-,N/A,,Clear,170,2013-01-04 07:53:00
2:53 AM,12.0,9.0,88,30.41,8.0,SSW,5.8,-,N/A,,Clear,200,2013-01-04 08:53:00
3:53 AM,12.9,9.0,84,30.40,9.0,Calm,Calm,-,N/A,,Clear,0,2013-01-04 09:53:00
4:53 AM,15.1,12.0,88,30.40,7.0,SSW,3.5,-,N/A,,Clear,200,2013-01-04 10:53:00
5:53 AM,12.9,10.0,88,30.40,6.0,South,5.8,-,N/A,,Clear,180,2013-01-04 11:53:00
6:53 AM,15.1,10.9,84,30.40,5.0,South,3.5,-,N/A,,Clear,170,2013-01-04 12:53:00
7:53 AM,15.1,12.0,88,30.38,5.0,South,3.5,-,N/A,,Clear,180,2013-01-04 13:53:00
8:53 AM,19.9,17.1,89,30.38,6.0,Calm,Calm,-,N/A,,Clear,0,2013-01-04 14:53:00
9:53 AM,24.1,19.9,84,30.39,10.0,SSW,9.2,-,N/A,,Clear,210,2013-01-04 15:53:00
10:53 AM,30.0,21.9,72,30.38,10.0,SW,9.2,-,N/A,,Clear,220,2013-01-04 16:53:00
11:53 AM,33.1,21.9,64,30.36,10.0,SW,15.0,-,N/A,,Clear,230,2013-01-04 17:53:00
12:53 PM,35.1,23.0,61,30.33,10.0,SW,8.1,-,N/A,,Clear,230,2013-01-04 18:53:00
1:53 PM,37.0,24.1,59,30.31,10.0,SSW,10.4,-,N/A,,Clear,200,2013-01-04 19:53:00
2:53 PM,37.9,24.1,57,30.29,10.0,SSW,9.2,-,N/A,,Clear,210,2013-01-04 20:53:00
3:53 PM,37.9,25.0,60,30.29,10.0,SSW,9.2,-,N/A,,Clear,210,2013-01-04 21:53:00
4:53 PM,36.0,24.1,62,30.28,10.0,SSW,6.9,-,N/A,,Clear,210,2013-01-04 22:53:00
5:53 PM,28.9,21.9,75,30.29,10.0,South,5.8,-,N/A,,Clear,190,2013-01-04 23:53:00
6:53 PM,28.9,21.9,75,30.29,10.0,South,5.8,-,N/A,,Clear,190,2013-01-05 00:53:00
7:53 PM,27.0,21.9,81,30.28,10.0,South,4.6,-,N/A,,Clear,180,2013-01-05 01:53:00
8:53 PM,26.1,21.0,81,30.27,10.0,SSE,4.6,-,N/A,,Clear,160,2013-01-05 02:53:00
9:53 PM,24.1,21.0,88,30.26,10.0,Calm,Calm,-,N/A,,Clear,0,2013-01-05 03:53:00
10:53 PM,21.9,19.0,89,30.25,10.0,Calm,Calm,-,N/A,,Clear,0,2013-01-05 04:53:00
11:53 PM,19.9,17.1,89,30.25,9.0,Calm,Calm,-,N/A,,Clear,0,2013-01-05 05:53:00